CZ-2D DEB, 44611

Orbit data source: Space-Track

CZ-2D DEB, 44611 is space debris in SSO originally from a launch on Mon, 09 Oct 2017 UTC launched from the Jiuquan Satellite Launch Center, China (JSC). Debris objects in space refer to the collection of defunct objects orbiting the Earth. Examples of debris include non-operational satellites, rocket bodies, and fragments generated from explosions, collisions, or faulty payload assembly.

Loading next visibility...
Identifier
44611, 2017-060D
Orbit
SSO
Country
Flag of CNCN / PRC
Related business
Manufacturer
Unknown
Mission
Spacecraft
Bus & Motor
Unknown
Mass
Unknown
Launch date (UTC)
2017-10-09 (9 years ago)
Launch vehicle
Unknown
Launch site
Jiuquan Satellite Launch Center, China (JSC)
Object type
Payload
Rocket body
Debris
Shape & HBR
Unknown shape, 0.1 m
Radar Cross Section
Medium (>0.1 m² and <1 m²)

Expand to show TLE details & history
Last TLE update: 2 days ago

TLE from 2 days ago
0 CZ-2D DEB
1 44611U 17060D   26171.37404022  .00004079  00000-0  36840-3 0  9993
2 44611  98.2288 328.4223 0028825 105.8266 254.6135 14.95789904467629
Epoch: 2026-06-20T08:58Z
TLE epoch observation values (Epoch: 2026-06-20T08:58:37.075Z)
Latitude
0.00004°
Longitude
-74.82177°
Altitude
588.331 km
Speed
7.563 km/s
True Right ascension
21h 53m 41s
True Declination
0° 00' 00"
Sunlit
Object was in full shadow at epoch
Visualization orbit readout
Latitude
Unknown
Longitude
Unknown
Altitude
Unknown
Speed
Unknown
Apparent Right ascension
Unknown
Apparent Declination
Unknown
Sunlit
N/A
Visualization observer readout
Local Sidereal Time
21:41:30
Azimuth
Unknown
Elevation
Unknown
Doppler factor
Unknown
Orbital elements
Apogee altitude
597.005 km
Perigee altitude
556.909 km
Semi-major axis
6,955.094 km
Eccentricity
0.00288
Inclination
98.2288°
RAAN
328.4223°
Arg. of periapsis
105.8266°
True anomaly
254.29533°
Mean anomaly
254.6135°
Eccentric anomaly
254.45439°
Mean motion
3.74187 °/min
Orbital period
96.21 mins
BSTAR
0.0003684
Loading maneuver chart data...
Computing Atmospheric mass density...
Loading historical data...
Loading historical data...
Loading historical data...
Loading historical data...
Loading historical data...
Loading historical data...
Loading historical data...
Other satellites on launch #60 in the year 2017 (2017-10-09 UTC)

Documentation

Showing up to 5 results
|